Newark, NJ

6:39 AM EST on December 11, 2017 (GMT -0500)
Newark International

Weather History for KEWR - March, 2014

Change the Weather History Date:

Friday, March 14, 2014

  Actual Average Record
Temperature  
Mean Temperature 35 °F 41 °F  
Max Temperature 49 °F 50 °F 79 °F (2007)
Min Temperature 20 °F 33 °F 17 °F (1932)
Degree Days  
Heating Degree Days 30 24  
Month to date heating degree days 418 358  
Since 1 July heating degree days 4293 3993  
Cooling Degree Days 0 0  
Month to date cooling degree days 0 0  
Year to date cooling degree days 0 0  
Moisture  
Dew Point 9 °F    
Average Humidity 40    
Maximum Humidity 59    
Minimum Humidity 21    
Precipitation  
Precipitation 0.00 in 0.13 in 1.15 in (2017)
Month to date precipitation 0.27 1.75  
Year to date precipitation 7.99 8.17  
Snow  
Snow 0.00 in 0.20 in 7.00 in (2017)
Month to date snowfall 0.2 2.8  
Since 1 July snowfall 60.7 25.8  
Snow Depth 0.00 in    
Sea Level Pressure  
Sea Level Pressure 30.10 in    
Wind  
Wind Speed 10 mph (SW)    
Max Wind Speed 22 mph    
Max Gust Speed 28 mph    
Visibility 10 miles    
Events      
T = Trace of Precipitation, MM = Missing Value Source: NWS Daily Summary

Daily Weather History Graph

Daily Weather History Graph

Search for Another Location

Airport or City:

Trip Planner

Search our weather history database for the weather conditions in past years. The results will help you decide how hot, cold, wet, or windy it might be!

Date:

Astronomy

Mar. 14, 2014 Rise Set
Actual Time 7:09 AM EDT 7:02 PM EDT
Civil Twilight 6:42 AM EDT 7:29 PM EDT
Nautical Twilight 6:11 AM EDT 8:01 PM EDT
Astronomical Twilight 5:38 AM EDT 8:33 PM EDT
Moon 5:21 PM EDT (3/14) 5:49 AM EDT (3/14)
Length of Visible Light 12h 46m
Length of Day
11h 52m
Waxing Gibbous, 96% of the Moon is Illuminated
Mar 14
Waxing Gibbous
Mar 16
Full
Mar 23
Last Quarter
Mar 30
New
Apr 7
First Quarter

Hourly Weather History & Observations

Time (EDT) Temp. Windchill Dew Point Humidity Pressure Visibility Wind Dir Wind Speed Gust Speed Precip Events Conditions
12:51 AM 23.0 °F 11.7 °F -2.9 °F 32% 30.12 in 10.0 mi NW 11.5 mph - N/A   Clear
1:51 AM 21.9 °F 11.0 °F -2.9 °F 34% 30.13 in 10.0 mi WNW 10.4 mph - N/A   Partly Cloudy
2:51 AM 21.9 °F 14.5 °F -2.9 °F 34% 30.15 in 10.0 mi West 5.8 mph - N/A   Partly Cloudy
3:51 AM 21.9 °F 15.7 °F -2.9 °F 34% 30.15 in 10.0 mi WSW 4.6 mph - N/A   Partly Cloudy
4:51 AM 21.9 °F 13.4 °F -2.0 °F 35% 30.18 in 10.0 mi WSW 6.9 mph - N/A   Partly Cloudy
5:51 AM 19.9 °F 12.1 °F -0.0 °F 42% 30.19 in 10.0 mi SW 5.8 mph - N/A   Partly Cloudy
6:51 AM 21.9 °F 13.4 °F 1.0 °F 40% 30.21 in 10.0 mi SW 6.9 mph - N/A   Partly Cloudy
7:51 AM 23.0 °F 17.0 °F 5.0 °F 46% 30.22 in 10.0 mi SSW 4.6 mph - N/A   Scattered Clouds
8:51 AM 27.0 °F 20.5 °F 5.0 °F 39% 30.23 in 10.0 mi Variable 5.8 mph - N/A   Mostly Cloudy
9:51 AM 28.9 °F 21.1 °F 6.1 °F 38% 30.22 in 10.0 mi SW 8.1 mph - N/A   Overcast
10:51 AM 32.0 °F 26.4 °F 9.0 °F 38% 30.21 in 10.0 mi SSW 5.8 mph - N/A   Overcast
11:51 AM 35.1 °F 26.9 °F 9.0 °F 34% 30.19 in 10.0 mi SSW 11.5 mph - N/A   Overcast
12:51 PM 37.9 °F 29.2 °F 10.0 °F 32% 30.17 in 10.0 mi SW 15.0 mph - N/A   Overcast
1:51 PM 42.1 °F 34.9 °F 10.9 °F 28% 30.14 in 10.0 mi SSW 13.8 mph - N/A   Scattered Clouds
2:51 PM 45.0 °F 37.6 °F 10.9 °F 25% 30.10 in 10.0 mi SSW 17.3 mph 23.0 mph N/A   Scattered Clouds
3:51 PM 48.0 °F - 10.0 °F 22% 30.06 in 10.0 mi SSW 15.0 mph 26.5 mph N/A   Mostly Cloudy
4:51 PM 48.9 °F - 10.9 °F 22% 30.02 in 10.0 mi South 13.8 mph 19.6 mph N/A   Mostly Cloudy
5:51 PM 48.0 °F - 14.0 °F 26% 30.00 in 10.0 mi SSW 15.0 mph 23.0 mph N/A   Mostly Cloudy
6:51 PM 45.0 °F 40.1 °F 19.0 °F 36% 29.99 in 10.0 mi South 9.2 mph 20.7 mph N/A   Mostly Cloudy
7:51 PM 43.0 °F 36.4 °F 19.9 °F 40% 29.98 in 10.0 mi South 12.7 mph - N/A   Mostly Cloudy
8:51 PM 41.0 °F 34.7 °F 24.1 °F 51% 29.97 in 10.0 mi South 10.4 mph - N/A   Mostly Cloudy
9:51 PM 39.9 °F 34.5 °F 26.1 °F 58% 29.96 in 10.0 mi South 8.1 mph - N/A   Overcast
10:51 PM 41.0 °F 36.4 °F 26.1 °F 55% 29.95 in 10.0 mi South 6.9 mph - N/A   Overcast
11:51 PM 42.1 °F 35.7 °F 25.0 °F 51% 29.91 in 10.0 mi South 11.5 mph 17.3 mph N/A   Overcast